星链-3361 (STARLINK-3361 )

导读

STARLINK-3361是美国太空探索技术公司Starlink星链卫星互联网项目的卫星之一,由SpaceX在2022年1月19日发射升空,星链项目旨在为全球提供高速低延迟宽带互联网服务,该卫星属于星链星座组网的一员,运行在近地轨道,服务全球用户的互联网接入需求。

Basic Information
目录编号:
51151
目录名称:
STARLINK-3361
国际标识:
2022-005AZ
轨道中心:
EARTH
卫星名称:
星链-3361
卫星全名:
星链-3361 (STARLINK-3361 )
卫星状态:
已陨落 最后检测时间 2025-11-12
发射日期:
2022-01-19 UTC
国别 :
美国 (US)
星等 :
--
Orbit Information
数据来源 国际轨道数据
星历时间: 2025-11-12T01:02:56+0800
轨道信息已过期218天
半长轴: 6532.001km
偏心率: 0.000082
轨道倾角: 53.177°
近地点辐角 71.906°
升交点赤经 2.934°
平近点角 288.208°
近地点: 153.33km
远地点: 154.402km
周期: 87.565分钟
每日圈数: 16.444982
Detailed Information
固有亮度:
5
最大亮度:
2.5
卫星平台:
Starlink v1.5
覆盖范围:
全球
运营商:
太空探索技术公司
运营商所在国:
美国
制造商(研发单位):
太空探索技术公司
制造商所在国:
美国
使用方式:
暂无
Satellite Introduction
星链(Starlink)计划是由太空探索技术公司(SpaceX)提出的一个巨型低轨卫星互联网星座项目,计划在2019年至2024年间在太空搭建由约1.2万颗卫星组成的“星链”网络,其中1584颗将部署在地球上空550千米处的近地轨道,并从2020年开始工作。该卫星仍在工作。